Tracking 19831 objects as of 23-Aug-2019
HD Live streaming from Space Station
objects crossing your sky now

COSMOS 528

Track COSMOS 528 now!
10-day predictions
COSMOS 528 is classified as:


NORAD ID: 6262
Int'l Code: 1972-087A
Perigee: 1,373.4 km
Apogee: 1,473.9 km
Inclination: 74.0 °
Period: 114.1 minutes
Semi major axis: 7794 km
RCS: 0.7007 m2 (medium)
Launch date: November 1, 1972
Source: Commonwealth of Independent States (former USSR) (CIS)
Launch site: PLESETSK MISSILE AND SPACE COMPLEX (PKMTR)
aabbcc
Your satellite tracking list
Your tracking list is empty




NASA's NSSDC Master Catalog

Two Line Element Set (TLE):
1  6262U 72087A   19234.60441160 -.00000016 +00000-0 -74697-6 0  9999
2  6262 074.0337 281.8051 0064454 115.8360 038.5046 12.61566153155681
Source of the keplerian elements: AFSPC